BREEZE-M DEB, 62722

Orbit data source: Space-Track

BREEZE-M DEB, 62722 is space debris in GEO originally from a launch on Mon, 28 Jan 2008 UTC launched from the Tyuratam Missile And Space Complex (TTMTR). Debris objects in space refer to the collection of defunct objects orbiting the Earth. Examples of debris include non-operational satellites, rocket bodies, and fragments generated from explosions, collisions, or faulty payload assembly.

Not visible in the next 10 days
Identifier
62722, 2008-003D
Orbit
GEO
Country
Flag of CISCIS
Related business
Manufacturer
Khrunichev
Mission
Spacecraft
Bus & Motor
Unknown
Mass
Unknown
Launch date (UTC)
2008-01-28 (18 years ago)
Launch vehicle
Unknown
Launch site
Tyuratam Missile And Space Complex (TTMTR)
Object type
Payload
Rocket body
Debris
Shape & HBR
Unknown shape, 1.1 m
Radar Cross Section
Medium (>0.1 m² and <1 m²)

Expand to show TLE details & history
Last TLE update: 3 months ago

TLE from 3 months ago
0 BREEZE-M DEB
1 62722U 08003D   26077.01698231  .00000004  00000-0  00000-0 0  9996
2 62722  11.2219  27.1594 0767448 179.9387 180.1497  1.01867510 11848
Epoch: 2026-03-18T00:24Z
TLE epoch observation values (Epoch: 2026-03-18T00:24:27.271Z)
Latitude
-0.00001°
Longitude
-154.51181°
Altitude
38,554.17 km
Speed
2.862 km/s
True Right ascension
01h 48m 45s
True Declination
0° 00' 00"
Sunlit
Object was in daylight at epoch
Visualization orbit readout
Latitude
Unknown
Longitude
Unknown
Altitude
Unknown
Speed
Unknown
Apparent Right ascension
Unknown
Apparent Declination
Unknown
Sunlit
N/A
Visualization observer readout
Local Sidereal Time
07:16:31
Azimuth
Unknown
Elevation
Unknown
Doppler factor
Unknown
Orbital elements
Apogee altitude
38,548.256 km
Perigee altitude
32,144.014 km
Semi-major axis
41,724.272 km
Eccentricity
0.07674
Inclination
11.2219°
RAAN
27.1594°
Arg. of periapsis
179.9387°
True anomaly
180.12874°
Mean anomaly
180.1497°
Eccentric anomaly
180.13903°
Mean motion
0.25466 °/min
Orbital period
1,413.65 mins
BSTAR
0
Loading maneuver chart data...
Computing Atmospheric mass density...
Loading historical data...
Loading historical data...
Loading historical data...
Loading historical data...
Loading historical data...
Loading historical data...
Loading historical data...
Other satellites on launch #3 in the year 2008 (2008-01-28 UTC)

Documentation

Showing up to 5 results
|